Location: Newark
(42.7133°N, 87.7910°W)
Time: 07:41:41
(UTC+00:00)

SR - All Passes

Search period start: 22 September 2019 00:00
Search period end: 02 October 2019 00:00
Orbit: 576 x 880 km, 66.7° (Epoch: 22 September)

Date Brightness Start Highest point End Pass type
(mag) Time Alt. Az. Time Alt. Az. Time Alt. Az.
22 Sep - 09:35:25 10° SSE 09:38:38 19° ESE 09:42:01 10° ENE visible
22 Sep - 11:15:32 10° SW 11:20:08 54° NW 11:25:13 10° NNE daylight
22 Sep - 13:01:44 10° NW 13:03:33 12° NNW 13:05:24 10° N daylight
22 Sep - 18:13:23 10° N 18:18:07 26° NE 18:22:57 10° E daylight
22 Sep - 19:54:56 10° NW 20:00:42 66° WSW 20:06:33 10° SSE daylight
23 Sep - 10:25:49 10° SSW 10:30:27 76° ESE 10:35:35 10° NNE visible
23 Sep - 12:09:48 10° W 12:13:14 19° NW 12:16:53 10° N daylight
23 Sep - 17:24:24 10° N 17:27:55 16° NE 17:31:31 10° ENE daylight
23 Sep - 19:05:15 10° NNW 19:11:03 70° ENE 19:16:57 10° SE daylight
23 Sep - 20:48:31 10° WNW 20:52:38 20° WSW 20:56:48 10° SSW daylight
24 Sep - 09:36:46 10° S 09:41:01 36° ESE 09:45:38 10° NE visible
24 Sep - 11:18:51 10° WSW 11:23:07 31° NW 11:27:45 10° NNE daylight
24 Sep - 16:36:22 10° NNE 16:37:32 11° NNE 16:38:41 10° NE daylight
24 Sep - 18:15:48 10° NNW 18:21:13 40° NE 18:26:45 10° ESE daylight
24 Sep - 19:58:00 10° NW 20:03:19 38° WSW 20:08:42 10° S daylight
25 Sep - 08:48:41 10° SSE 08:51:46 18° ESE 08:55:01 10° ENE visible
25 Sep - 10:28:35 10° SW 10:33:13 58° NW 10:38:21 10° NNE visible
25 Sep - 12:14:30 10° WNW 12:16:35 12° NNW 12:18:44 10° N daylight
25 Sep - 17:26:32 10° N 17:31:12 25° NE 17:35:58 10° E daylight
25 Sep - 19:08:01 10° NW 19:13:49 70° WSW 19:19:42 10° SSE daylight
25 Sep - 20:54:10 10° W 20:54:58 10° W 20:55:45 10° WSW daylight
26 Sep - 09:38:55 10° SSW 09:43:33 72° ESE 09:48:42 10° NE visible
26 Sep - 11:22:42 10° W 11:26:17 20° NW 11:30:05 10° N daylight
26 Sep - 16:37:34 10° N 16:40:59 16° NE 16:44:27 10° ENE daylight
26 Sep - 18:18:22 10° NNW 18:24:10 67° ENE 18:30:03 10° SE daylight
26 Sep - 20:01:30 10° WNW 20:05:47 21° WSW 20:10:06 10° SSW daylight
27 Sep - 08:49:55 10° S 08:54:07 34° ESE 08:58:42 10° NE visible
27 Sep - 10:31:50 10° WSW 10:36:11 33° NW 10:40:55 10° NNE visible
27 Sep - 15:49:49 10° NNE 15:50:34 10° NNE 15:51:18 10° NE daylight
27 Sep - 17:28:56 10° NNW 17:34:18 38° NE 17:39:49 10° ESE daylight
27 Sep - 19:11:04 10° NW 19:16:28 40° WSW 19:21:55 10° S daylight
28 Sep - 08:01:57 10° SE 08:04:54 17° ESE 08:08:00 10° ENE visible
28 Sep - 09:41:37 10° SW 09:46:19 61° NW 09:51:30 10° NNE visible
28 Sep - 11:27:17 10° WNW 11:29:37 13° NNW 11:32:02 10° N daylight
28 Sep - 16:39:41 10° N 16:44:17 24° NE 16:48:57 10° E daylight
28 Sep - 18:21:07 10° NW 18:26:57 74° WSW 18:32:51 10° SSE daylight
28 Sep - 20:06:32 10° W 20:08:08 11° W 20:09:43 10° WSW daylight
29 Sep - 08:52:00 10° SSW 08:56:40 67° ESE 09:01:49 10° NE visible
29 Sep - 10:35:38 10° W 10:39:19 21° NW 10:43:17 10° N visible
29 Sep - 15:50:45 10° N 15:54:02 15° NE 15:57:23 10° ENE daylight
29 Sep - 17:31:29 10° NNW 17:37:16 63° NE 17:43:09 10° SE daylight
29 Sep - 19:14:31 10° WNW 19:18:57 23° WSW 19:23:24 10° SSW daylight
30 Sep - 08:03:05 10° S 08:07:15 32° ESE 08:11:47 10° NE visible
30 Sep - 09:44:50 10° WSW 09:49:15 35° NW 09:54:05 10° NNE visible
30 Sep - 16:42:03 10° NNW 16:47:24 37° NE 16:52:51 10° ESE daylight
30 Sep - 18:24:08 10° NW 18:29:36 42° WSW 18:35:07 10° S daylight
01 Oct - 07:15:15 10° SE 07:18:03 16° ESE 07:20:58 10° ENE visible
01 Oct - 08:54:39 10° SW 08:59:24 65° WNW 09:04:38 10° NNE visible
01 Oct - 10:40:06 10° WNW 10:42:39 14° NW 10:45:19 10° N visible
01 Oct - 15:52:50 10° N 15:57:21 23° NE 16:01:57 10° E daylight
01 Oct - 17:34:14 10° NNW 17:40:05 78° WSW 17:46:00 10° SSE daylight
01 Oct - 19:19:12 10° W 19:21:17 12° WSW 19:23:23 10° WSW daylight
